Flag Weather past 2 weeks in Prizren, Kosovo

Now
39 °F

Mostly cloudy.


Feels Like: 34 °F
Forecast: 38 / 50 °F
Wind: 7 mph from North

Location: Skopje-Petrovec

Current Time: Nov 26, 2014 at 5:46:19 AM

Latest Report: Nov 26, 2014 at 5:00 AM


Visibility: N/A

Pressure: 30.21 "Hg

Humidity: 81%

Dew point: 34 °F

Location of PrizrenLocation

Historic Weather in Prizren — Graph

°F

Prizren temperature yesterday

Maximum temperature yesterday: 48 °F (at 2:30 PM)
Minimum temperature yesterday: 28 °F (at 6:30 AM)
Average temperature yesterday: 39 °F

Past Weeks' High & Low Weather Summary

 TemperatureHumidityPressure
High61 °F (Nov 12, 1:00 PM)100% (Nov 14, 12:30 AM)30.42 "Hg (Nov 14, 12:30 AM)
Low27 °F (Nov 23, 5:30 AM)43% (Nov 25, 3:00 PM)29.80 "Hg (Nov 13, 2:00 PM)
Average49 °F83%30.10 "Hg
* Reported Nov 11 4:00 AM — Nov 26 4:00 AM, Prizren, Weather by CustomWeather, © 2014

Note: Actual official high and low records may vary slightly from our data, if they occured in-between our weather recording intervals... More about our weather records

Advertising

Prizren weather history for previous 24 hours

 ConditionsComfort  
Time TempWeatherWind HumidityBarometerVisibility
4:00 AM
Nov 26
39 °FOvercast.7 mph81%30.21 "HgN/A
3:30 AM39 °FOvercast.5 mph81%30.21 "HgN/A
3:00 AM39 °FOvercast.5 mph81%30.21 "HgN/A
2:30 AM39 °FOvercast.No wind87%30.21 "HgN/A
2:00 AM39 °FOvercast.No wind87%30.21 "HgN/A
1:30 AM39 °FOvercast.No wind87%30.21 "HgN/A
1:00 AM39 °FOvercast.No wind87%30.21 "HgN/A
12:30 AM39 °FOvercast.2 mph81%30.21 "HgN/A
12:00 AM39 °FOvercast.1 mph81%30.21 "HgN/A
11:30 PM
Nov 25
39 °FOvercast.No wind81%30.21 "HgN/A
11:00 PM39 °FOvercast.2 mph81%30.21 "HgN/A
10:30 PM37 °FOvercast.2 mph87%30.21 "HgN/A
10:00 PM37 °FOvercast.No wind87%30.21 "HgN/A
9:30 PM39 °FOvercast.2 mph81%30.21 "HgN/A
9:00 PM39 °FOvercast.No wind81%30.21 "HgN/A
8:30 PM37 °FPassing clouds.2 mph81%30.21 "HgN/A
8:00 PM37 °FPassing clouds.1 mph81%30.21 "HgN/A
7:30 PM39 °FPartly cloudy.No wind75%30.21 "HgN/A
7:00 PM37 °FPartly cloudy.No wind81%30.24 "HgN/A
6:00 PM39 °FPassing clouds.No wind75%30.21 "HgN/A
5:30 PM39 °FPassing clouds.No wind75%30.24 "HgN/A
5:00 PM39 °FPassing clouds.No wind75%30.24 "HgN/A
4:30 PM41 °FPassing clouds.No wind70%30.24 "HgN/A
4:00 PM43 °FPartly sunny.No wind66%30.24 "HgN/A
3:30 PM45 °FPartly sunny.No wind53%30.24 "HgN/A
3:00 PM46 °FPassing clouds.No wind43%30.24 "HgN/A
2:30 PM48 °FPassing clouds.No wind46%30.24 "HgN/A
2:00 PM46 °FPassing clouds.No wind50%30.24 "HgN/A
1:30 PM46 °FPassing clouds.No wind50%30.24 "HgN/A
1:00 PM46 °FPassing clouds.No wind50%30.27 "HgN/A
12:30 PM46 °FPartly sunny.No wind50%30.27 "HgN/A
12:00 PM45 °FPartly sunny.No wind57%30.30 "HgN/A
11:30 AM45 °FSunny.No wind57%30.30 "Hg10 mi
11:00 AM45 °FSunny.No wind57%30.33 "Hg10 mi
10:30 AM45 °FSunny.No wind61%30.33 "Hg10 mi
10:00 AM41 °FSunny.No wind70%30.33 "Hg10 mi
9:30 AM39 °FClear.No wind75%30.36 "Hg5 mi
9:00 AM37 °FSunny.No wind81%30.36 "Hg10 mi
8:30 AM36 °FSunny.No wind81%30.33 "Hg10 mi
8:00 AM32 °FClear.No wind87%30.33 "Hg4 mi
7:30 AM30 °FSunny.No wind86%30.36 "Hg10 mi
7:00 AM28 °FSunny.2 mph86%30.36 "Hg10 mi
6:30 AM28 °FClear.No wind93%30.36 "Hg10 mi
6:00 AM30 °FClear.2 mph93%30.33 "Hg10 mi
5:30 AM32 °FClear.2 mph87%30.33 "Hg10 mi
5:00 AM32 °FClear.8 mph87%30.33 "Hg10 mi
Weather by CustomWeather, © 2014

See weather overviewHow to use our weather pages